[[{"header":{"parameterUnit":"m.s-1","parameterCategory":1,"la1":30.2991,"la2":30.254,"lo1":-89.0895,"lo2":-89.0444,"dy":0.0017,"dx":0.0017,"nx":28,"ny":28,"refTime":"2025-04-20T21:00:00:Z","depth":0,"parameterNumber":2,"parameterNumberName":"U-component_of_WINDS"},"data":[0,0,0,0,0,0,0,0,0,0,0,0,0,0,0,0,0,0,0,0,0,0,0,0,0,0,0,0,0,0,0,0,0,0,0,0,0,0,0,0,0,0,0,0,0,0,0,0,0,0,0,0,0,0,0,0,0,0,-1.329,-1.3289,0,-1.3263,-1.3262,-1.3262,-1.3259,-1.3259,-1.3259,-1.326,-1.323,-1.3229,-1.3228,0,0,0,0,0,0,0,0,0,0,0,0,0,-1.3338,-1.3337,-1.329,-1.3289,-1.3289,-1.3263,-1.3262,-1.3262,-1.3259,-1.3259,-1.326,-1.326,-1.3231,-1.3229,-1.3228,0,0,0,0,0,0,0,0,0,0,0,0,0,-1.3315,-1.3337,-1.329,-1.3284,-1.3284,-1.3263,-1.3262,-1.3262,-1.3259,-1.3259,-1.326,-1.326,-1.3231,-1.323,-1.3228,-1.321,0,0,-1.3223,-1.3223,0,0,0,0,0,0,0,0,-1.3316,-1.3313,-1.3285,-1.3285,-1.3284,-1.3265,-1.3269,-1.3244,-1.3259,-1.3268,-1.326,-1.326,-1.3241,-1.3239,-1.3233,-1.3209,-1.3207,-1.3223,-1.3222,-1.3221,-1.3221,0,0,0,0,0,0,0,-1.3318,-1.3314,-1.3279,-1.3285,-1.3284,-1.3283,-1.328,-1.3264,-1.3253,-1.3267,-1.3267,-1.3264,-1.3241,-1.3234,-1.3232,-1.3207,-1.3223,-1.3222,-1.3221,-1.322,-1.3169,-1.3168,0,0,0,0,0,0,-1.332,-1.3315,-1.328,-1.3278,-1.3301,-1.3282,-1.3279,-1.327,-1.3253,-1.3251,-1.3264,-1.3264,-1.3237,-1.3234,-1.3231,-1.321,-1.3221,-1.322,-1.3219,-1.3169,-1.3169,-1.3168,0,0,0,0,0,0,-1.3321,-1.3317,-1.3281,-1.3297,-1.3292,-1.3281,-1.3271,-1.327,-1.3263,-1.325,-1.3248,-1.3259,-1.3237,-1.3233,-1.3216,-1.3209,-1.3219,-1.3218,-1.317,-1.3169,-1.3168,-1.3167,0,0,0,0,0,0,-1.3323,-1.3318,-1.3311,-1.3297,-1.3291,-1.3266,-1.3271,-1.3269,-1.3261,-1.3261,-1.3245,-1.3243,-1.3237,-1.3218,-1.3214,-1.3207,-1.3217,-1.317,-1.3169,-1.3168,-1.3167,-1.3166,-1.3165,0,0,0,0,0,-1.3325,-1.331,-1.331,-1.3306,-1.3282,-1.3266,-1.3262,-1.3256,-1.326,-1.3253,-1.3245,-1.3244,-1.321,-1.3216,-1.3212,-1.3204,-1.317,-1.3169,-1.3169,-1.3168,-1.3166,-1.3165,0,0,0,0,0,0,-1.3323,-1.3308,-1.3308,-1.3289,-1.3279,-1.3265,-1.3256,-1.3255,-1.3242,-1.3243,-1.3236,-1.3232,-1.3215,-1.3208,-1.3215,-1.3187,-1.3191,-1.3189,-1.3192,-1.319,-1.3189,-1.3191,-1.3215,0,0,0,0,0,-1.332,-1.3308,-1.3296,-1.3281,-1.3276,-1.3267,-1.3259,-1.3256,-1.3244,-1.324,-1.323,-1.3219,-1.3207,-1.3198,-1.3185,-1.3167,-1.3164,-1.3159,-1.3158,-1.3157,-1.3155,-1.3146,-1.3144,-1.3165,-1.3165,-1.3165,0,0,-1.3314,-1.3305,-1.3298,-1.328,-1.3272,-1.326,-1.3263,-1.3249,-1.324,-1.3237,-1.3221,-1.3214,-1.3201,-1.3183,-1.3175,-1.3177,-1.3149,-1.3156,-1.3155,-1.3154,-1.3145,-1.3143,-1.3141,-1.3164,-1.3164,-1.3164,0,0,-1.3298,-1.329,-1.3276,-1.3268,-1.3256,-1.3251,-1.3248,-1.3235,-1.323,-1.3214,-1.3212,-1.3201,-1.3179,-1.317,-1.3163,-1.3146,-1.3145,-1.3142,-1.3136,-1.3127,-1.3126,-1.3124,-1.3119,-1.3117,-1.3141,-1.3141,-1.3141,0,-1.3292,-1.3274,-1.3269,-1.3257,-1.3249,-1.3248,-1.3234,-1.3227,-1.3211,-1.3206,-1.3208,-1.3182,-1.3173,-1.3154,-1.315,-1.3144,-1.314,-1.3144,-1.3126,-1.3125,-1.3123,-1.3118,-1.3116,-1.3141,-1.3141,-1.3141,-1.3141,0,-1.3268,-1.3255,-1.3246,-1.3232,-1.3224,-1.3211,-1.3204,-1.3197,-1.3195,-1.3189,-1.3173,-1.3163,-1.3149,-1.3144,-1.3141,-1.3125,-1.3127,-1.3128,-1.3132,-1.3121,-1.3116,-1.3114,-1.314,-1.314,-1.314,-1.3141,0,0,-1.3247,-1.3233,-1.3229,-1.3224,-1.3211,-1.3202,-1.3189,-1.3177,-1.317,-1.316,-1.315,-1.3132,-1.3134,-1.3126,-1.3122,-1.3115,-1.3103,-1.3117,-1.3116,-1.3115,-1.3085,-1.3084,-1.3082,-1.3102,-1.3102,-1.3102,-1.3087,0,-1.3229,-1.3207,-1.3204,-1.3185,-1.3174,-1.3174,-1.3163,-1.3154,-1.3149,-1.3139,-1.3134,-1.3122,-1.3125,-1.312,-1.3113,-1.3106,-1.3097,-1.3107,-1.3093,-1.3092,-1.3095,-1.3079,-1.3078,-1.3064,-1.3084,-1.3084,-1.3084,0,-1.3205,-1.3195,-1.3175,-1.3167,-1.3162,-1.3152,-1.3141,-1.3132,-1.3123,-1.312,-1.3112,-1.311,-1.3098,-1.3103,-1.3086,-1.3093,-1.3087,-1.3084,-1.3083,-1.3081,-1.3087,-1.3077,-1.3059,-1.3057,-1.3081,-1.3081,-1.3081,0,-1.3192,-1.3175,-1.3161,-1.3156,-1.3145,-1.3139,-1.3134,-1.3125,-1.3118,-1.3109,-1.3105,-1.3093,-1.3087,-1.3079,-1.3074,-1.3079,-1.3058,-1.3063,-1.3055,-1.3056,-1.305,-1.3051,-1.3031,-1.3047,-1.3047,-1.3047,-1.3047,0,-1.3172,-1.316,-1.3155,-1.3147,-1.3134,-1.313,-1.3117,-1.3113,-1.3105,-1.3096,-1.3095,-1.3086,-1.3081,-1.3072,-1.3068,-1.3055,-1.3052,-1.305,-1.3049,-1.305,-1.305,-1.3045,-1.3046,-1.3047,-1.3047,-1.3047,-1.3047,0,-1.3155,-1.3152,-1.3137,-1.3129,-1.3126,-1.3117,-1.311,-1.3102,-1.3098,-1.3086,-1.3083,-1.3077,-1.3066,-1.3061,-1.3047,-1.3045,-1.3031,-1.303,-1.3034,-1.3033,-1.3026,-1.3027,-1.3003,-1.3,-1.3018,-1.3018,-1.3018,0,-1.3143,-1.3134,-1.3125,-1.312,-1.3115,-1.3105,-1.3099,-1.3096,-1.309,-1.308,-1.3073,-1.3063,-1.3054,-1.3037,-1.3031,-1.3021,-1.302,-1.3013,-1.3018,-1.302,-1.302,-1.3021,-1.302,-1.3011,-1.3011,-1.3011,-1.3011,0,-1.3121,-1.312,-1.3111,-1.3103,-1.3096,-1.3088,-1.3081,-1.3076,-1.3073,-1.3065,-1.3055,-1.3049,-1.3036,-1.3025,-1.3015,-1.301,-1.301,-1.3009,-1.3007,-1.3008,-1.301,-1.3009,-1.3031,-1.301,-1.301,-1.301,-1.301,-1.301,-1.3106,-1.3098,-1.3092,-1.3083,-1.3078,-1.3071,-1.3064,-1.306,-1.3052,-1.3041,-1.304,-1.3029,-1.3022,-1.3009,-1.3004,-1.2995,-1.2997,-1.2994,-1.2993,-1.2992,-1.2992,-1.3012,-1.2993,-1.2993,-1.2993,-1.2993,-1.2994,0,-1.3084,-1.3081,-1.3072,-1.3063,-1.3056,-1.3058,-1.3051,-1.3045,-1.3036,-1.3029,-1.3022,-1.3011,-1.3001,-1.2995,-1.2986,-1.2981,-1.298,-1.2978,-1.2978,-1.2977,-1.299,-1.2993,-1.2979,-1.2979,-1.2979,-1.2979,-1.2979,-1.2979,-1.3072,-1.306,-1.3059,-1.3045,-1.3041,-1.3031,-1.3027,-1.3022,-1.3017,-1.3005,-1.2997,-1.2994,-1.2988,-1.2979,-1.2971,-1.297,-1.2966,-1.2964,-1.2963,-1.2975,-1.2976,-1.2978,-1.2981,-1.2963,-1.2963,-1.295,-1.295,-1.295]},{"header":{"parameterUnit":"m.s-1","parameterCategory":1,"la1":30.2991,"la2":30.254,"lo1":-89.0895,"lo2":-89.0444,"dy":0.0017,"dx":0.0017,"nx":28,"ny":28,"refTime":"2025-04-20T21:00:00:Z","depth":0,"parameterNumber":3,"parameterNumberName":"V-component_of_WINDS"},"data":[0,0,0,0,0,0,0,0,0,0,0,0,0,0,0,0,0,0,0,0,0,0,0,0,0,0,0,0,0,0,0,0,0,0,0,0,0,0,0,0,0,0,0,0,0,0,0,0,0,0,0,0,0,0,0,0,0,0,3.5556,3.5555,0,3.5513,3.5512,3.5512,3.5457,3.5456,3.5455,3.5454,3.541,3.541,3.5409,0,0,0,0,0,0,0,0,0,0,0,0,0,3.5588,3.5587,3.5556,3.5555,3.5555,3.5513,3.5512,3.5512,3.5457,3.5456,3.5455,3.5454,3.541,3.541,3.5409,0,0,0,0,0,0,0,0,0,0,0,0,0,3.5562,3.5587,3.5556,3.5522,3.5519,3.5513,3.5512,3.5512,3.5457,3.5456,3.5455,3.5453,3.541,3.541,3.5409,3.5433,0,0,3.5408,3.5408,0,0,0,0,0,0,0,0,3.5564,3.5561,3.5528,3.5525,3.5521,3.5489,3.5507,3.5485,3.5458,3.5481,3.5454,3.5453,3.5437,3.5435,3.5429,3.5431,3.5429,3.5408,3.5407,3.5407,3.5407,0,0,0,0,0,0,0,3.5566,3.5563,3.5539,3.5527,3.5523,3.5509,3.5504,3.5503,3.5467,3.5479,3.5474,3.547,3.5435,3.543,3.5428,3.5428,3.5408,3.5407,3.5407,3.5407,3.5443,3.5444,0,0,0,0,0,0,3.5573,3.5565,3.554,3.5537,3.5539,3.5509,3.5503,3.55,3.5467,3.546,3.5471,3.5468,3.5432,3.5429,3.5426,3.5449,3.5407,3.5407,3.5406,3.5442,3.5443,3.5445,0,0,0,0,0,0,3.5574,3.5571,3.5542,3.555,3.5545,3.551,3.5507,3.55,3.5495,3.5461,3.5455,3.5473,3.543,3.5427,3.5431,3.5447,3.5406,3.5406,3.544,3.5442,3.5444,3.5497,0,0,0,0,0,0,3.5575,3.5572,3.5581,3.555,3.5545,3.5548,3.5508,3.55,3.5494,3.5489,3.5461,3.5455,3.5429,3.5432,3.543,3.5445,3.5406,3.5439,3.5441,3.5444,3.5494,3.55,3.5506,0,0,0,0,0,3.5576,3.5598,3.5582,3.5579,3.5556,3.5549,3.5546,3.5516,3.5496,3.5504,3.5482,3.5456,3.5446,3.5433,3.5431,3.5446,3.5438,3.5441,3.5443,3.5491,3.5499,3.5506,0,0,0,0,0,0,3.5632,3.5594,3.5575,3.5588,3.5572,3.554,3.555,3.5526,3.5515,3.5511,3.5474,3.5468,3.5476,3.5461,3.5448,3.5465,3.5438,3.544,3.5474,3.5482,3.5488,3.5491,3.5405,0,0,0,0,0,3.5645,3.5644,3.561,3.5625,3.5618,3.5585,3.5581,3.5559,3.5541,3.5534,3.5513,3.5496,3.5488,3.5485,3.5476,3.5491,3.5483,3.55,3.5507,3.5512,3.5515,3.5518,3.5525,3.5454,3.5454,3.5454,0,0,3.5674,3.5653,3.5654,3.5635,3.5621,3.5619,3.558,3.558,3.5578,3.5534,3.5536,3.552,3.5498,3.5507,3.551,3.5495,3.5532,3.5516,3.552,3.552,3.5522,3.5529,3.5535,3.5456,3.5456,3.5456,0,0,3.5724,3.5709,3.5718,3.5704,3.5682,3.5659,3.5662,3.5632,3.5619,3.5621,3.5587,3.5584,3.5573,3.5558,3.5549,3.5591,3.5566,3.559,3.5622,3.5627,3.5632,3.5637,3.565,3.5655,3.5592,3.5592,3.5593,0,3.5762,3.5758,3.5726,3.5727,3.5719,3.5679,3.5687,3.5675,3.5651,3.5646,3.563,3.5613,3.5596,3.56,3.561,3.5605,3.5604,3.5592,3.5634,3.5639,3.5643,3.5654,3.566,3.5595,3.5595,3.5595,3.5594,0,3.5805,3.5803,3.5813,3.579,3.5783,3.5788,3.5755,3.5752,3.573,3.5709,3.5709,3.5687,3.5672,3.5672,3.5651,3.5672,3.5663,3.5641,3.5612,3.5653,3.5663,3.5668,3.5599,3.5598,3.5598,3.5597,0,0,3.589,3.5848,3.5852,3.584,3.5811,3.5809,3.5811,3.5796,3.5793,3.5777,3.5777,3.5767,3.5746,3.5736,3.5713,3.5717,3.5749,3.5694,3.5693,3.5703,3.5767,3.5783,3.5789,3.5732,3.5733,3.5734,3.5768,0,3.5933,3.5935,3.5905,3.5914,3.591,3.5871,3.5873,3.5855,3.5835,3.5828,3.5806,3.5799,3.5773,3.5766,3.5768,3.5745,3.5761,3.5742,3.573,3.573,3.5735,3.5794,3.5811,3.5845,3.5772,3.5773,3.5774,0,3.5985,3.5971,3.598,3.5949,3.5946,3.5949,3.5931,3.5926,3.5903,3.5888,3.5876,3.5849,3.5848,3.5821,3.5817,3.5805,3.5798,3.5785,3.5785,3.5782,3.5753,3.5791,3.5856,3.586,3.578,3.578,3.5779,0,3.6043,3.6027,3.603,3.6021,3.5986,3.5987,3.5973,3.5949,3.5942,3.5926,3.592,3.5905,3.5897,3.5885,3.5854,3.5838,3.5852,3.5824,3.5838,3.5839,3.5842,3.5842,3.5905,3.5841,3.5841,3.5841,3.584,0,3.6094,3.6101,3.6055,3.6057,3.6062,3.6027,3.6033,3.6014,3.5993,3.5989,3.5955,3.5952,3.5912,3.5904,3.5879,3.5878,3.5875,3.5861,3.5855,3.5864,3.5865,3.5858,3.5854,3.5842,3.5842,3.5841,3.5841,0,3.616,3.613,3.613,3.6096,3.6087,3.6092,3.6063,3.6062,3.6039,3.6034,3.6031,3.5995,3.5984,3.5952,3.5932,3.5916,3.592,3.5909,3.5928,3.5923,3.5939,3.5937,3.5998,3.6003,3.5937,3.5938,3.5938,0,3.6194,3.6198,3.6164,3.6158,3.6145,3.6137,3.6129,3.6094,3.6086,3.606,3.6061,3.6047,3.6033,3.6016,3.5988,3.5972,3.5958,3.5981,3.5956,3.5964,3.5956,3.5956,3.5955,3.5986,3.5987,3.5988,3.5988,0,3.6256,3.6241,3.623,3.6214,3.6204,3.619,3.6173,3.617,3.6131,3.6123,3.6111,3.61,3.6079,3.6064,3.6044,3.6027,3.6,3.5996,3.5998,3.6007,3.6017,3.6009,3.5941,3.5995,3.5994,3.5994,3.5993,3.5993,3.6306,3.6306,3.6282,3.627,3.6254,3.6239,3.6235,3.6212,3.6201,3.6181,3.6161,3.615,3.6125,3.6094,3.6079,3.6069,3.6055,3.6059,3.6059,3.606,3.6063,3.602,3.6065,3.6065,3.6065,3.6064,3.6064,0,3.6365,3.6347,3.6336,3.6314,3.6304,3.628,3.626,3.6253,3.6244,3.6223,3.621,3.6194,3.6179,3.6149,3.6131,3.6128,3.6115,3.6124,3.6123,3.6119,3.6078,3.6077,3.6135,3.6135,3.6135,3.6135,3.6135,3.6135,3.6394,3.6393,3.6375,3.6364,3.6346,3.6335,3.6325,3.631,3.6293,3.6277,3.6264,3.6244,3.6219,3.6198,3.6182,3.6174,3.6168,3.618,3.6168,3.6129,3.6123,3.6116,3.6115,3.618,3.618,3.621,3.621,3.621]}]]